Regional Weather Roundup
Issued by NWS

Home | Current Version | Previous Version | Text Only | Print | Product List | Glossary Off
Versions: 1 2 3 4 5 6 7 8 9 10 11 12 13 14 15 16 17 18 19 20 21 22 23 24 25 26 27 28 29 30 31 32 33 34 35 36 37 38 39 40 41 42 43 44 45 46 47 48 49 50

000
ASUS43 KLMK 230510
RWRKY
KENTUCKY REGIONAL WEATHER ROUNDUP
NATIONAL WEATHER SERVICE LOUISVILLE KY
100 AM EDT WED MAY 23 2018

NOTE "FAIR" INDICATES FEW OR NO CLOUDS BELOW 12,000 FEET
WITH NO SIGNIFICANT WEATHER AND/OR OBSTRUCTIONS TO VISIBILITY.

KYZ001>023-026-027-061>063-070>075-230600-
WESTERN AND SOUTH CENTRAL KENTUCKY

CITY           SKY/WX    TMP DP  RH WIND       PRES   REMARKS
PADUCAH        FAIR      71  67  87 CALM      30.03S
HENDERSON      NOT AVBL
OWENSBORO      FAIR      73  70  90 CALM      30.04R
HOPKINSVILLE   FAIR      71  70  96 CALM      30.05R
BOWLING GREEN  FAIR      69  68  96 CALM      30.06R
GLASGOW        FAIR      67  65  96 CALM      30.07R
$$

KYZ024-025-028>034-038-045-046-053-230600-
NORTH CENTRAL KENTUCKY

CITY           SKY/WX    TMP DP  RH WIND       PRES   REMARKS
LOUISVILLE/SDF MOCLDY    75  70  84 W7        30.03R
LOUISVILLE/LOU FAIR      74  72  93 SW7       30.03S
FORT KNOX      FAIR      70  70 100 CALM      30.05R
$$

KYZ035>037-039>044-047>052-055>060-089>105-230600-
NORTHEAST KENTUCKY

CITY           SKY/WX    TMP DP  RH WIND       PRES   REMARKS
LEXINGTON      FAIR      69  64  84 SW7       30.04F
COVINGTON      FAIR      70  60  70 N12       30.04R
FRANKFORT      FAIR      68  64  87 CALM      30.02S
$$

KYZ054-064>069-076>088-106>120-230600-
SOUTHEAST KENTUCKY

CITY           SKY/WX    TMP DP  RH WIND       PRES   REMARKS
JACKSON        FAIR      67  65  93 CALM      30.06S
LONDON         FOG       63  63 100 W3        30.06F VSB 3/4
SOMERSET       FOG       63  63 100 MISG      30.08S VSB 1/4
MIDDLESBORO    CLOUDY    65  65 100 CALM      30.09S
MONTICELLO     FAIR      64  64 100 NE5       30.09S
$$





USA.gov is the U.S. government's official web portal to all federal, state and local government web resources and services.